Location: Dugenta
(41.1333°N, 14.4500°E)
Time: 14:59:18
(UTC+00:00)

Cosmos 2341 Rocket - Pass Details

Date: 03 March 2021
Orbit: 968 x 1004 km, 82.9° (Epoch: 20 April)

Event Time Altitude Azimuth Distance (km) Brightness Sun altitude
Rises 18:27:15 0° 186° (S) 3,700 7.0 -18.0°
Reaches altitude 10° 18:29:46 10° 186° (S) 2,750 6.3 -18.5°
Maximum altitude 18:36:06 88° 275° (W) 994 4.0 -19.7°
Drops below altitude 10° 18:42:25 10° 7° (N) 2,742 6.4 -20.9°
Sets 18:44:55 0° 8° (N) 3,689 7.1 -21.3°
